Location: A?va
(36.5674°N, 30.5561°E)
Time: 10:26:00
(UTC+00:00)

Daily predictions for brighter satellites

Satellite Brightness Start Highest point End
(mag) Time Altitude Azimuth Time Altitude Azimuth Time Altitude Azimuth
Timation 2 Rocket 4.2 15:06:14 10° SSW 15:13:01 73° ESE 15:19:53 10° NNE
Cosmos 1441 Rocket 3.9 15:12:36 10° NNW 15:15:52 50° W 15:19:08 10° S
MOS 1 Rocket 4.1 15:14:12 10° ESE 15:17:37 24° ENE 15:21:08 10° NNE
Cosmos 2233 Rocket 4.4 15:14:05 10° SSW 15:20:21 73° W 15:26:41 10° N
Cosmos 2061 Rocket 4.2 15:16:11 10° S 15:22:30 79° W 15:28:47 10° N
SL-12 R/B(2) 4.3 15:16:16 10° SSW 15:23:53 84° WNW 15:33:06 10° NNE
ATLAS 5 CENTAUR R/B 1.9 15:19:31 10° NNW 15:24:14 68° ENE 15:30:04 10° SE
Cosmos 407 Rocket 3.5 15:21:03 10° SSW 15:26:15 89° WNW 15:31:26 10° NNE
SAR-Lupe-3 3.7 15:27:23 10° NNE 15:30:01 87° WNW 15:32:37 10° SSW
SPOT 1/Viking Rocket 4.3 15:30:41 10° SE 15:35:06 30° ENE 15:39:32 10° N
Cosmos 1464 Rocket 4.4 15:30:24 10° SSE 15:36:13 41° E 15:42:00 10° NNE
RESURS DK-1 2.9 15:33:43 10° N 15:37:21 32° ENE 15:40:57 10° SE
BlueWalker 3 3.5 15:36:38 10° S 15:39:11 18° SE 15:40:44 14° E
Cosmos 1869 3.2 15:36:21 10° SSW 15:39:52 73° W 15:43:23 10° N
CZ-2D R/B 2.6 15:36:54 10° SSE 15:40:03 84° ENE 15:43:13 10° N
Cosmos 1602 4.2 15:38:13 10° NNE 15:40:48 24° ENE 15:43:21 10° SE
ISS -1.5 15:39:02 10° WNW 15:41:23 18° NNW 15:43:45 10° NNE
DELTA 2 R/B (1) 4.4 15:37:54 10° SW 15:42:59 38° SSE 15:46:56 16° E
SJ-12 3.7 15:40:43 10° SSE 15:44:30 88° ENE 15:48:18 10° NNW
AQUARIUS 4.0 15:41:35 10° SSE 15:45:57 69° ENE 15:50:20 10° N
COSMO-SKYMED 1 3.0 15:45:50 10° NNE 15:49:39 36° E 15:53:26 10° SSE
Cosmos 540 Rocket 3.4 15:48:06 10° N 15:53:10 60° ENE 15:58:11 10° SSE
Cosmos 1400 Rocket 3.0 15:49:39 10° SSE 15:53:14 41° E 15:56:32 12° NNE
Cosmos 1763 Rocket 3.4 15:53:14 10° NNW 15:58:27 82° ENE 16:03:33 10° SSE
Cosmos 1975 Rocket 4.1 15:54:55 10° NNW 15:59:06 47° W 16:03:18 10° SSW
SMAP 4.4 15:56:37 10° S 16:01:01 43° W 16:05:28 10° NNW
Cosmos 2151 Rocket 3.5 15:56:40 10° S 16:01:05 65° E 16:05:32 10° NNE
Cosmos 1812 2.9 15:58:47 10° SSW 16:01:36 49° W 16:04:26 10° N
Cosmos 44 Rocket 4.3 15:58:41 10° SW 16:03:10 42° NW 16:07:49 10° NNE
OAO 2 Rocket 3.4 15:58:45 10° W 16:03:46 73° S 16:06:57 23° ESE
Cosmos 1943 Rocket 3.2 15:59:25 10° SW 16:04:48 46° WNW 16:10:10 10° N
OAO 3 Rocket 3.1 16:01:45 10° W 16:06:24 74° S 16:08:48 28° E
IRAS Rocket 4.4 16:01:22 10° SE 16:06:41 48° ENE 16:11:59 10° N
Cosmos 1072 Rocket 4.4 16:03:10 10° S 16:09:20 85° E 16:15:28 10° N
Cosmos 2058 2.6 16:06:48 10° N 16:10:46 72° E 16:14:43 10° SSE
Okean 1 Rocket 3.2 16:06:57 10° SSE 16:11:13 51° E 16:14:35 16° NNE
Sich 1 Rocket 3.7 16:07:32 10° S 16:11:55 54° E 16:16:03 12° NNE
Aureole 3 Rocket 3.8 16:09:05 10° SSW 16:11:59 36° W 16:14:50 10° N
CZ-2D R/B 3.3 16:08:27 10° SSE 16:12:30 64° ENE 16:16:39 10° N
Cosmos 2278 Rocket 3.4 16:07:58 10° SW 16:13:17 41° WNW 16:18:37 10° N
SJ-7 4.3 16:10:03 10° SSE 16:13:35 48° ENE 16:17:08 10° N
PSLV R/B 3.6 16:10:01 10° SE 16:13:51 44° ENE 16:17:41 10° N
Cosmos 2082 Rocket 2.3 16:09:42 10° NNW 16:15:10 51° ENE 16:20:36 10° SE
SKYMED 2 3.8 16:11:05 10° N 16:15:25 72° WNW 16:19:44 10° SSW
NOAA 6 4.4 16:11:42 10° SE 16:16:25 38° ENE 16:21:09 10° N
Helios 1A Rocket 2.4 16:18:18 21° N 16:20:27 79° WNW 16:23:49 10° SSW
Cosmos 2369 Rocket 3.2 16:18:54 10° SSE 16:22:29 25° ESE 16:22:29 25° ESE
Cosmos 2251 Rocket 4.5 16:20:21 10° SW 16:25:24 47° WNW 16:30:32 10° N
SL-19 R/B 3.9 16:23:52 10° SSE 16:29:04 69° ENE 16:34:13 10° N
Cosmos 371 Rocket 3.3 16:26:09 10° SSW 16:30:56 78° WNW 16:34:20 20° NNE
YAOGAN 1 2.3 16:26:47 10° SSE 16:31:02 78° ENE 16:35:17 10° N
Cosmos 304 Rocket 3.9 16:27:32 10° SSW 16:32:13 72° WNW 16:35:37 19° N
H-2A R/B 3.4 16:31:25 10° WSW 16:33:04 12° SSW 16:34:16 10° S
SJ 16-02 2.2 16:31:28 10° SW 16:35:37 47° WNW 16:39:07 14° N
Cosmos 841 Rocket 3.9 16:33:04 10° N 16:37:10 41° NE 16:37:10 41° NE
DMSP B5D1-3 4.4 16:36:50 41° NE 16:38:26 62° E 16:43:27 10° S
Nadezhda 4 Rocket 3.9 16:32:53 10° N 16:39:11 87° W 16:45:22 10° S
ATLAS 2AS CENTAUR R/B 4.2 16:35:05 10° N 16:38:09 17° NNE 16:38:09 17° NNE
BREEZE M DEB (TANK) 4.0 16:38:31 10° SW 16:40:01 23° SSW 16:40:01 23° SSW
Resurs 1-3 3.5 16:38:32 10° S 16:42:49 82° WSW 16:47:08 10° NNW
Cosmos 1656 Rocket 3.5 16:39:17 10° SSW 16:44:47 89° ESE 16:47:09 36° NNE
Cosmos 1627 Rocket 4.4 16:41:30 10° N 16:47:31 56° E 16:53:33 10° SSE
COSMOS 2406 3.4 16:42:13 10° NNW 16:47:01 48° NE 16:47:01 48° NE
USA 215 3.7 16:41:33 10° SSE 16:47:58 59° SW 16:54:25 10° NW
Cosmos 1862 4.2 16:48:01 10° NNW 16:51:28 42° W 16:54:54 10° SSW
Cosmos 468 Rocket 4.4 16:46:29 10° NNW 16:51:35 60° WSW 16:56:36 10° S
Cosmos 2195 Rocket 4.4 16:46:45 10° N 16:53:05 79° E 16:59:25 10° S
Cosmos 489 Rocket 4.4 16:54:54 10° NNW 17:01:10 85° WSW 17:07:21 10° SSE
H-II Stage 2 3.5 16:52:41 10° W 17:02:10 35° SSW 17:02:47 33° S
Meteor 2-3 Rocket 3.6 17:01:30 10° N 17:07:12 90° E 17:07:28 82° S
USA 281 4.3 17:15:07 29° N 17:15:07 29° N 17:18:22 10° N
BlueWalker 3 4.2 17:13:02 10° WSW 17:14:33 22° W 17:14:33 22° W
Cosmos 968 Rocket 4.1 17:16:25 10° SSW 17:20:39 53° WSW 17:20:39 53° WSW
Cosmos 1634 Rocket 4.0 17:15:45 10° S 17:22:01 78° W 17:22:50 67° NNW
DELTA 2 R/B (1) 4.3 17:23:33 10° WSW 17:27:39 51° W 17:27:39 51° W
Cosmos 2369 Rocket 4.2 18:02:08 10° SW 18:04:20 22° WSW 18:04:20 22° WSW
